Tracking 19717 objects as of 25-Jun-2019
HD Live streaming from Space Station
objects crossing your sky now

IRIDIUM 160

Track IRIDIUM 160 now!
10-day predictions
IRIDIUM 160 is classified as:


NORAD ID: 43569
Int'l Code: 2018-061A
Perigee: 783.3 km
Apogee: 786.3 km
Inclination: 86.4 °
Period: 100.4 minutes
Semi major axis: 7155 km
RCS: Unknown
Launch date: July 25, 2018
Source: United States (US)
Launch site: AIR FORCE WESTERN TEST RANGE (AFWTR)
aabbcc
Your satellite tracking list
Your tracking list is empty




NASA's NSSDC Master Catalog

Two Line Element Set (TLE):
1 43569U 18061A   19176.13730588  .00000061  00000-0  14763-4 0  9994
2 43569  86.3975  41.9990 0002076  93.8539 266.2894 14.34217413 48011
Source of the keplerian elements: AFSPC